• Join FlightAware (Why Join?)
  • Login
  • US Flag 
04:34AM EDT


 

Airport Tracker/Info


-or-


 

Live Flight TrackerFlight Track Log ✈ EJA831 ✈ 12-Oct-2013 ✈ KDTS - KAVL

Flight Track Log - Related Links

Times and Time Zones

All times are in EDT time to prevent confusion due to time zone crossing. See the EJA831 flight status page for this flight to view local times or setup timezone preferences in your user account.

Time Position Orientation Groundspeed Altitude Reporting Facility
EDT Latitude Longitude Course Direction KTS MPH feet Rate Location/Type
11:20AM 30.4914 -86.4144 12° North 235 270 6,000  Level Jacksonville Center
11:21AM 30.5469 -86.3633 38° Northeast 235 270 9,000 3,000 Climbing Jacksonville Center
11:22AM 30.6244 -86.3614 North 242 278 12,100 2,700 Climbing Jacksonville Center
11:23AM 30.7006 -86.3231 23° Northeast 262 302 14,500 2,280 Climbing Jacksonville Center
11:24AM 30.7792 -86.2728 29° Northeast 292 336 16,700 2,100 Climbing Jacksonville Center
11:25AM 31.0342 -86.0053 12° North  Level Estimated
11:25AM 30.8619 -86.2225 28° Northeast 317 365 18,700  Level Jacksonville Center
11:26AM 30.9489 -86.1697 27° Northeast 333 383 20,200 1,500 Climbing Jacksonville Center
11:27AM 31.0378 -86.1147 28° Northeast 344 396 21,700 1,440 Climbing Jacksonville Center
11:28AM 31.1250 -86.0594 28° Northeast 351 404 23,100 1,440 Climbing Jacksonville Center
11:29AM 31.2181 -86.0019 28° Northeast 363 418 24,600 1,500 Climbing Jacksonville Center
11:31AM 31.3758 -85.8994 29° Northeast 377 434 27,300 1,500 Climbing Atlanta Center
11:32AM 31.4664 -85.8428 28° Northeast 377 434 28,800 1,500 Climbing Atlanta Center
11:33AM 31.5589 -85.7839 28° Northeast 371 427 30,300 1,500 Climbing Atlanta Center
11:34AM 31.6475 -85.7269 29° Northeast 371 427 31,900 1,620 Climbing Atlanta Center
11:35AM 31.7381 -85.6700 28° Northeast 371 427 33,600 1,500 Climbing Atlanta Center
11:36AM 31.8264 -85.6131 29° Northeast 365 420 34,900 660 Climbing Atlanta Center
11:37AM 31.9189 -85.5533 29° Northeast 365 420 35,000  Climbing Atlanta Center
11:38AM 32.0200 -85.4867 29° Northeast 386 444 35,000  Level Atlanta Center
11:39AM 32.1231 -85.4219 28° Northeast 405 466 35,000  Level Atlanta Center
11:40AM 32.2281 -85.3525 29° Northeast 418 481 35,000  Level Atlanta Center
11:41AM 32.3331 -85.2828 29° Northeast 418 481 35,000  Level Atlanta Center
11:42AM 32.4361 -85.2178 28° Northeast 423 487 35,000  Level Atlanta Center
11:43AM 32.5369 -85.1378 34° Northeast 417 480 35,000  Level Atlanta Center
11:44AM 32.6275 -85.0453 41° Northeast 427 491 35,000  Level Atlanta Center
11:45AM 32.7222 -84.9572 38° Northeast 427 491 35,000  Level Atlanta Center
11:46AM 32.8272 -84.8669 36° Northeast 425 489 35,000  Level Atlanta Center
11:47AM 32.9236 -84.7739 39° Northeast 425 489 35,000  Level Atlanta Center
11:48AM 33.0078 -84.6903 40° Northeast 430 495 35,000  Level Atlanta Center
11:49AM 33.1022 -84.5992 39° Northeast 430 495 35,000  Level Atlanta Center
11:50AM 33.1944 -84.5056 40° Northeast 430 495 35,000 -60 Level Atlanta Center
11:51AM 33.2886 -84.4142 39° Northeast 430 495 34,900 -780 Descending Atlanta Center
11:52AM 33.3806 -84.3225 40° Northeast 425 489 33,500 -1,320 Descending Atlanta Center
11:53AM 33.4603 -84.2106 49° Northeast 425 489 32,300 -1,140 Descending Atlanta Center
11:54AM 33.5375 -84.0961 51° Northeast 438 504 31,300 -660 Descending Atlanta Center
11:55AM 33.6169 -83.9789 51° Northeast 449 517 31,000 -180 Descending Atlanta Center
11:56AM 33.6939 -83.8667 50° Northeast 444 511 31,000  Level Atlanta Center
11:57AM 33.7731 -83.7464 52° Northeast 444 511 31,000  Level Atlanta Center
11:58AM 33.8519 -83.6311 50° Northeast 444 511 31,000  Level Atlanta Center
11:59AM 33.9414 -83.5106 48° Northeast 444 511 31,000  Level Atlanta Center
12:00PM 34.0453 -83.4397 29° Northeast 425 489 31,000 -420 Level Atlanta Center
12:01PM 34.1472 -83.3736 28° Northeast 420 483 30,200 -1,200 Descending Atlanta Center
12:02PM 34.2511 -83.3075 28° Northeast 413 475 28,600 -1,620 Descending Atlanta Center
12:03PM 34.3572 -83.2386 28° Northeast 418 481 27,000 -1,680 Descending Atlanta Center
12:04PM 34.4611 -83.1772 26° Northeast 418 481 25,300 -1,680 Descending Atlanta Center
12:05PM 34.5567 -83.1106 30° Northeast 400 460 23,700 -1,620 Descending Atlanta Center
12:06PM 34.6583 -83.0489 27° Northeast 395 455 22,100 -1,680 Descending Atlanta Center
12:07PM 34.7497 -82.9847 30° Northeast 384 442 20,400 -1,980 Descending Atlanta Center
12:08PM 34.8411 -82.9253 28° Northeast 370 426 18,200 -1,980 Descending Atlanta Center
12:09PM 34.9200 -82.8836 23° Northeast 363 418 16,500 -2,220 Descending Atlanta Center
12:10PM 35.0111 -82.8214 29° Northeast 363 418 13,800 -2,340 Descending Atlanta Center
12:11PM 35.0919 -82.7694 28° Northeast 349 402 11,900 -1,440 Descending Atlanta Center
12:12PM 35.1667 -82.7228 27° Northeast 322 371 11,000 -1,080 Descending Atlanta Center
12:13PM 35.2411 -82.6681 31° Northeast 310 357 9,800 -1,800 Descending Atlanta Center
12:14PM 35.3053 -82.6264 28° Northeast 280 322 7,400 -2,100 Descending Atlanta Center
12:15PM 35.3800 -82.5767 28° Northeast 264 304 5,700 11,760 Descending Atlanta Center
12:16PM 35.4461 -82.5322 29° Northeast 264 304 31,000 12,600 Climbing Atlanta Center
12:17PM 35.5144 -82.4850 29° Northeast 264 304 31,000  Level Atlanta Center
12:18PM 35.5536 -82.4586 29° Northeast 264 304 31,000  Level Atlanta Center
12:20PM 35.4333 -82.5333 210° Southwest  Level FlightAware Approximate
12:27PM 35.4362 -82.5418 210° Southwest  Level Estimated